ONEWEB-0112 (48051 NORAD) Tracking and Keplerian Element Data

This shows tracking and keplerian element data for the satellite.

Feedback or suggestion? Click here.




ElementValue
Catalog48051
NameONEWEB-0112
Epoch Orbit193
Epoch Day173.91668981
Epoch Year2021
RAAN322.3449
Inclination87.8144
Eccentricity0.0006035
Argument of Perigee351.5409
Mean Anonmoly191.8025
Mean Motion13.75535889
Decay Rate1.5E-07
L11 48051U 21025K 21173.91668981 .00000015 00000-0 00000-0 0 9996
L22 48051 87.8144 322.3449 0006035 351.5409 191.8025 13.75535889 1933

Live tracking and technical data element details for ONEWEB-0112 (NORAD 48051). ONEWEB-0112 can be tracked NOW for your location showing map with azimuth and elevation plus other details from your city location.

Track the satellite on the map from your city or location and see movement details for azimuth, elevation, latitude, longitude, range, height, and movement on the map or in text.







IsCatalogInMostPopularTable: catalog: 48051, numindb: 39
Update: records affected: 1



GetName: 48051 ONEWEB-0112

Hit Count: updated at: Thu, 24 Jun 2021 03:39:01 GMT